Location: Unspecified
(49.9820°N, 20.4363°E)
Time: 20:24:24
(UTC+02:00)

ISS - Visible Passes

Search period start: 24 September 2021 00:00
Search period end: 04 October 2021 00:00
Orbit: 419 x 423 km, 51.6° (Epoch: 24 September)

Date Brightness Start Highest point End Pass type
(mag) Time Alt. Az. Time Alt. Az. Time Alt. Az.
24 Sep -3.6 19:26:17 10° W 19:29:40 75° N 19:32:32 14° ENE visible
24 Sep -2.3 21:03:18 10° WNW 21:05:32 37° WNW 21:05:32 37° WNW visible
25 Sep -3.5 20:16:22 10° W 20:19:43 64° N 20:20:21 50° ENE visible
25 Sep -0.3 21:53:16 10° WNW 21:53:21 10° WNW 21:53:21 10° WNW visible
26 Sep -3.5 19:29:24 10° W 19:32:46 63° N 19:35:10 17° ENE visible
26 Sep -1.8 21:06:20 10° WNW 21:08:10 29° WNW 21:08:10 29° WNW visible
27 Sep -3.9 20:19:24 10° WNW 20:22:48 82° NNE 20:22:59 77° ENE visible
28 Sep -3.7 19:32:28 10° WNW 19:35:51 71° N 19:37:48 23° E visible
28 Sep -1.3 21:09:24 10° W 21:10:48 22° W 21:10:48 22° W visible
29 Sep -3.5 20:22:25 10° WNW 20:25:39 59° SW 20:25:39 59° SW visible
30 Sep -3.8 19:35:28 10° WNW 19:38:51 79° SSW 19:40:32 27° ESE visible
30 Sep -0.8 21:12:44 10° W 21:13:31 14° WSW 21:13:31 14° WSW visible
01 Oct -3.7 18:48:31 10° WNW 18:51:55 84° NNE 18:55:17 10° ESE visible
01 Oct -2.3 20:25:33 10° W 20:28:27 29° SW 20:28:27 29° SW visible
02 Oct -2.8 19:38:30 10° W 19:41:43 42° SSW 19:43:27 22° SSE visible
03 Oct -3.3 18:51:30 10° WNW 18:54:50 58° SSW 18:58:09 10° SE visible
03 Oct -1.2 20:29:20 10° WSW 20:31:08 14° SW 20:31:31 14° SW visible
